Time,TemperatureF,DewpointF,PressureIn,WindDirection,WindDirectionDegrees,WindSpeedMPH,WindSpeedGustMPH,Humidity,HourlyPrecipIn,Conditions,Clouds,dailyrainin,SolarRadiationWatts/m^2,SoftwareType,DateUTC
2013-01-30 05:40:00,0.0,0.0,29.50,NNW,338,17.2,17.2,0,-99.99,,---,-99.99,0.00,VWS V14.01,2013-01-30 11:40:00,
2013-01-30 05:43:00,25.5,22.2,29.50,NNW,338,13.4,19.7,87,-99.99,,---,-99.99,0.00,VWS V14.01,2013-01-30 11:43:00,
2013-01-30 05:49:00,25.5,22.2,29.50,NNW,338,16.1,16.1,87,-99.99,,---,-99.99,0.00,VWS V14.01,2013-01-30 11:49:00,
2013-01-30 05:55:00,25.3,22.0,29.50,North,0,12.8,19.7,87,-99.99,,---,-99.99,0.00,VWS V14.01,2013-01-30 11:55:00,
2013-01-30 06:00:00,25.3,22.0,29.50,NNW,338,13.0,19.5,87,-99.99,,---,-99.99,0.00,VWS V14.01,2013-01-30 12:00:00,
2013-01-30 06:05:00,25.3,22.0,29.50,NNE,22,10.1,14.8,87,-99.99,,---,-99.99,0.00,VWS V14.01,2013-01-30 12:05:00,
2013-01-30 06:10:00,25.3,22.3,29.47,NNW,338,8.7,12.1,88,-99.99,,---,-99.99,0.00,VWS V14.01,2013-01-30 12:10:00,
2013-01-30 06:16:00,25.3,22.3,29.47,NNW,338,14.1,15.7,88,-99.99,,---,-99.99,0.00,VWS V14.01,2013-01-30 12:16:00,
2013-01-30 06:22:00,25.2,22.1,29.50,North,0,15.7,19.9,88,-99.99,,---,-99.99,0.00,VWS V14.01,2013-01-30 12:22:00,
2013-01-30 06:27:00,25.0,21.9,29.50,NNW,338,17.0,17.0,88,-99.99,,---,-99.99,0.00,VWS V14.01,2013-01-30 12:27:00,
2013-01-30 06:33:00,25.0,21.9,29.50,NNW,338,13.2,13.2,88,-99.99,,---,-99.99,0.00,VWS V14.01,2013-01-30 12:33:00,
2013-01-30 06:38:00,25.0,21.9,29.50,North,0,8.5,8.5,88,-99.99,,---,-99.99,0.00,VWS V14.01,2013-01-30 12:38:00,
2013-01-30 06:43:00,24.8,21.8,29.50,NNE,22,16.3,16.3,88,-99.99,,---,-99.99,0.00,VWS V14.01,2013-01-30 12:43:00,
2013-01-30 06:49:00,24.4,21.1,29.50,North,0,17.7,17.7,87,-99.99,,---,-99.99,0.00,VWS V14.01,2013-01-30 12:49:00,
2013-01-30 06:54:00,23.9,20.1,29.53,North,0,23.0,23.0,85,-99.99,,---,-99.99,0.00,VWS V14.01,2013-01-30 12:54:00,
2013-01-30 07:00:00,23.9,20.1,29.53,NNW,338,17.5,17.5,85,-99.99,,---,-99.99,0.00,VWS V14.01,2013-01-30 13:00:00,
2013-01-30 07:05:00,23.7,19.9,29.56,North,0,17.2,17.2,85,-99.99,,---,-99.99,0.00,VWS V14.01,2013-01-30 13:05:00,
2013-01-30 07:10:00,23.9,20.3,29.56,NNW,338,10.1,10.1,86,-99.99,,---,-99.99,0.00,VWS V14.01,2013-01-30 13:10:00,
2013-01-30 07:15:00,23.7,20.1,29.56,NNE,22,16.6,16.6,86,-99.99,,---,-99.99,0.00,VWS V14.01,2013-01-30 13:15:00,
2013-01-30 07:20:00,23.7,20.1,29.56,NNE,22,14.5,14.5,86,-99.99,,---,-99.99,0.00,VWS V14.01,2013-01-30 13:20:00,
2013-01-30 07:25:00,23.7,20.1,29.56,NNE,22,14.5,14.5,86,-99.99,,---,-99.99,0.00,VWS V14.01,2013-01-30 13:25:00,
2013-01-30 07:30:00,23.2,19.1,29.56,North,0,16.1,16.1,84,-99.99,,---,-99.99,0.00,VWS V14.01,2013-01-30 13:30:00,
2013-01-30 07:36:00,23.0,18.9,29.56,NW,315,15.9,17.5,84,-99.99,,---,-99.99,0.00,VWS V14.01,2013-01-30 13:36:00,
2013-01-30 07:41:00,23.0,18.9,29.56,NNW,338,16.3,16.3,84,-99.99,,---,-99.99,0.00,VWS V14.01,2013-01-30 13:41:00,
2013-01-30 07:46:00,23.0,19.2,29.56,NNW,338,11.2,11.2,85,-99.99,,---,-99.99,0.00,VWS V14.01,2013-01-30 13:46:00,
2013-01-30 07:52:00,22.8,18.7,29.53,NNW,338,15.2,15.2,84,-99.99,,---,-99.99,0.00,VWS V14.01,2013-01-30 13:52:00,
2013-01-30 07:58:00,22.8,18.7,29.53,NNW,338,10.7,10.7,84,-99.99,,---,-99.99,0.00,VWS V14.01,2013-01-30 13:58:00,
2013-01-30 08:04:00,22.8,18.7,29.53,NW,315,17.0,17.0,84,-99.99,,---,-99.99,0.00,VWS V14.01,2013-01-30 14:04:00,
2013-01-30 08:10:00,22.6,18.5,29.53,North,0,17.0,17.0,84,-99.99,,---,-99.99,0.00,VWS V14.01,2013-01-30 14:10:00,
2013-01-30 08:16:00,22.6,18.5,29.53,NNW,338,16.1,16.1,84,-99.99,,---,-99.99,0.00,VWS V14.01,2013-01-30 14:16:00,
2013-01-30 08:21:00,22.6,18.5,29.53,NNW,338,16.1,16.1,84,-99.99,,---,-99.99,0.00,VWS V14.01,2013-01-30 14:21:00,
2013-01-30 08:26:00,22.8,18.7,29.59,NNW,338,13.0,13.0,84,-99.99,,---,-99.99,0.00,VWS V14.01,2013-01-30 14:26:00,
2013-01-30 08:31:00,22.8,18.7,29.59,NNW,338,18.1,18.1,84,-99.99,,---,-99.99,0.00,VWS V14.01,2013-01-30 14:31:00,
2013-01-30 08:37:00,22.6,18.3,29.62,NNW,338,15.2,15.2,83,-99.99,,---,-99.99,0.00,VWS V14.01,2013-01-30 14:37:00,
2013-01-30 08:42:00,22.6,18.0,29.62,NW,315,15.7,18.6,82,-99.99,,---,-99.99,0.00,VWS V14.01,2013-01-30 14:42:00,
2013-01-30 08:47:00,22.6,18.3,29.62,NW,315,17.2,17.2,83,-99.99,,---,-99.99,0.00,VWS V14.01,2013-01-30 14:47:00,
2013-01-30 08:53:00,22.6,18.3,29.62,NW,315,15.4,16.8,83,-99.99,,---,-99.99,0.00,VWS V14.01,2013-01-30 14:53:00,
2013-01-30 08:59:00,22.6,18.5,29.62,North,0,12.5,17.9,84,-99.99,,---,-99.99,0.00,VWS V14.01,2013-01-30 14:59:00,
2013-01-30 09:04:00,22.6,18.3,29.62,NNE,22,15.2,15.2,83,-99.99,,---,-99.99,0.00,VWS V14.01,2013-01-30 15:04:00,
2013-01-30 09:10:00,22.8,18.4,29.62,NNW,338,14.5,14.5,83,-99.99,,---,-99.99,0.00,VWS V14.01,2013-01-30 15:10:00,
2013-01-30 09:16:00,22.8,18.7,29.62,NNW,338,10.7,17.2,84,-99.99,,---,-99.99,0.00,VWS V14.01,2013-01-30 15:16:00,
2013-01-30 09:21:00,22.8,18.7,29.62,NNW,338,14.5,14.5,84,-99.99,,---,-99.99,0.00,VWS V14.01,2013-01-30 15:21:00,
2013-01-30 09:27:00,22.8,18.7,29.62,NNW,338,17.7,17.7,84,-99.99,,---,-99.99,0.00,VWS V14.01,2013-01-30 15:27:00,
2013-01-30 09:32:00,22.8,18.7,29.62,NNW,338,15.7,19.5,84,-99.99,,---,-99.99,0.00,VWS V14.01,2013-01-30 15:32:00,
2013-01-30 09:37:00,23.2,19.1,29.62,NNW,338,13.0,13.0,84,-99.99,,---,-99.99,0.00,VWS V14.01,2013-01-30 15:37:00,
2013-01-30 09:43:00,23.2,18.8,29.62,NNW,338,13.0,14.5,83,-99.99,,---,-99.99,0.00,VWS V14.01,2013-01-30 15:43:00,
2013-01-30 09:48:00,23.2,18.5,29.62,NNW,338,13.9,13.9,82,-99.99,,---,-99.99,0.00,VWS V14.01,2013-01-30 15:48:00,
2013-01-30 09:53:00,23.2,18.5,29.65,NW,315,15.7,15.7,82,-99.99,,---,-99.99,0.00,VWS V14.01,2013-01-30 15:53:00,
2013-01-30 09:58:00,23.5,19.1,29.65,NNW,338,15.4,17.7,83,-99.99,,---,-99.99,0.00,VWS V14.01,2013-01-30 15:58:00,
2013-01-30 10:04:00,23.5,18.6,29.65,North,0,19.9,19.9,81,-99.99,,---,-99.99,0.00,VWS V14.01,2013-01-30 16:04:00,
2013-01-30 10:10:00,23.5,18.3,29.65,NNW,338,18.1,18.1,80,-99.99,,---,-99.99,0.00,VWS V14.01,2013-01-30 16:10:00,
2013-01-30 10:16:00,23.5,18.3,29.65,NNW,338,13.0,14.1,80,-99.99,,---,-99.99,0.00,VWS V14.01,2013-01-30 16:16:00,
2013-01-30 10:21:00,23.5,18.3,29.65,North,0,22.6,22.6,80,-99.99,,---,-99.99,0.00,VWS V14.01,2013-01-30 16:21:00,
2013-01-30 10:27:00,23.5,18.6,29.65,NW,315,16.3,16.3,81,-99.99,,---,-99.99,0.00,VWS V14.01,2013-01-30 16:27:00,
2013-01-30 10:32:00,23.5,18.3,29.65,NNW,338,10.5,14.8,80,-99.99,,---,-99.99,0.00,VWS V14.01,2013-01-30 16:32:00,
2013-01-30 10:37:00,23.5,18.6,29.68,NW,315,13.0,13.0,81,-99.99,,---,-99.99,0.00,VWS V14.01,2013-01-30 16:37:00,
2013-01-30 10:44:00,23.5,18.0,29.68,North,0,23.3,23.3,79,-99.99,,---,-99.99,0.00,VWS V14.01,2013-01-30 16:44:00,
2013-01-30 10:49:00,23.9,18.9,29.68,North,0,19.7,19.7,81,-99.99,,---,-99.99,0.00,VWS V14.01,2013-01-30 16:49:00,
2013-01-30 10:55:00,24.1,19.1,29.68,NNE,22,13.2,13.2,81,-99.99,,---,-99.99,0.00,VWS V14.01,2013-01-30 16:55:00,
2013-01-30 11:00:00,24.1,19.1,29.68,NNW,338,13.2,13.2,81,-99.99,,---,-99.99,0.00,VWS V14.01,2013-01-30 17:00:00,
2013-01-30 11:06:00,24.3,18.1,29.68,NNW,338,13.9,14.5,77,-99.99,,---,-99.99,0.00,VWS V14.01,2013-01-30 17:06:00,
2013-01-30 11:11:00,24.3,18.1,29.68,NNW,338,13.2,16.3,77,-99.99,,---,-99.99,0.00,VWS V14.01,2013-01-30 17:11:00,
2013-01-30 11:17:00,24.3,18.1,29.68,NW,315,19.9,19.9,77,-99.99,,---,-99.99,0.00,VWS V14.01,2013-01-30 17:17:00,
2013-01-30 11:22:00,24.6,17.5,29.68,North,0,15.4,15.4,74,-99.99,,---,-99.99,0.00,VWS V14.01,2013-01-30 17:22:00,
2013-01-30 11:28:00,24.4,17.0,29.68,NNW,338,22.2,22.2,73,-99.99,,---,-99.99,0.00,VWS V14.01,2013-01-30 17:28:00,
2013-01-30 11:34:00,24.4,14.7,29.68,NNW,338,22.8,22.8,66,-99.99,,---,-99.99,0.00,VWS V14.01,2013-01-30 17:34:00,
2013-01-30 11:39:00,24.6,13.8,29.68,NNW,338,13.0,13.0,63,-99.99,,---,-99.99,0.00,VWS V14.01,2013-01-30 17:39:00,
2013-01-30 11:44:00,24.8,10.5,29.68,NNE,22,11.0,14.5,54,-99.99,,---,-99.99,0.00,VWS V14.01,2013-01-30 17:44:00,
2013-01-30 11:50:00,24.4,8.0,29.68,NNW,338,10.1,17.5,49,-99.99,,---,-99.99,0.00,VWS V14.01,2013-01-30 17:50:00,
2013-01-30 11:56:00,24.6,5.3,29.68,NNW,338,12.8,15.4,43,-99.99,,---,-99.99,0.00,VWS V14.01,2013-01-30 17:56:00,
2013-01-30 12:01:00,25.2,5.8,29.68,NW,315,10.5,15.4,43,-99.99,,---,-99.99,0.00,VWS V14.01,2013-01-30 18:01:00,
2013-01-30 12:06:00,25.2,5.8,29.71,NNW,338,13.2,14.3,43,-99.99,,---,-99.99,0.00,VWS V14.01,2013-01-30 18:06:00,
2013-01-30 12:12:00,25.2,2.0,29.71,NW,315,13.2,16.3,36,-99.99,,---,-99.99,0.00,VWS V14.01,2013-01-30 18:12:00,
2013-01-30 12:17:00,25.2,2.0,29.71,NNE,22,26.0,26.0,36,-99.99,,---,-99.99,0.00,VWS V14.01,2013-01-30 18:17:00,
2013-01-30 12:23:00,25.7,1.9,29.68,NNW,338,15.4,15.7,35,-99.99,,---,-99.99,0.00,VWS V14.01,2013-01-30 18:23:00,
2013-01-30 12:28:00,25.9,1.4,29.68,NW,315,17.2,17.2,34,-99.99,,---,-99.99,0.00,VWS V14.01,2013-01-30 18:28:00,
2013-01-30 12:34:00,26.1,0.9,29.68,NNE,22,19.5,19.5,33,-99.99,,---,-99.99,0.00,VWS V14.01,2013-01-30 18:34:00,
2013-01-30 12:40:00,26.1,0.9,29.68,NNW,338,19.0,19.0,33,-99.99,,---,-99.99,0.00,VWS V14.01,2013-01-30 18:40:00,
2013-01-30 12:45:00,25.7,-0.1,29.71,NNW,338,17.0,17.0,32,-99.99,,---,-99.99,0.00,VWS V14.01,2013-01-30 18:45:00,
2013-01-30 12:51:00,26.1,0.9,29.71,NNW,338,14.1,14.1,33,-99.99,,---,-99.99,0.00,VWS V14.01,2013-01-30 18:51:00,
2013-01-30 12:56:00,25.9,0.1,29.71,NNW,338,13.0,17.2,32,-99.99,,---,-99.99,0.00,VWS V14.01,2013-01-30 18:56:00,
2013-01-30 13:01:00,25.9,1.4,29.71,NNW,338,17.5,17.5,34,-99.99,,---,-99.99,0.00,VWS V14.01,2013-01-30 19:01:00,
2013-01-30 13:07:00,25.5,1.1,29.71,NW,315,19.0,19.0,34,-99.99,,---,-99.99,0.00,VWS V14.01,2013-01-30 19:07:00,
2013-01-30 13:13:00,25.5,1.1,29.71,NNW,338,13.2,13.2,34,-99.99,,---,-99.99,0.00,VWS V14.01,2013-01-30 19:13:00,
2013-01-30 13:19:00,25.5,0.4,29.71,NNW,338,14.3,16.8,33,-99.99,,---,-99.99,0.00,VWS V14.01,2013-01-30 19:19:00,
2013-01-30 13:25:00,25.3,-0.4,29.71,NW,315,21.9,21.9,32,-99.99,,---,-99.99,0.00,VWS V14.01,2013-01-30 19:25:00,
2013-01-30 13:31:00,25.2,-0.5,29.71,NW,315,12.1,12.8,32,-99.99,,---,-99.99,0.00,VWS V14.01,2013-01-30 19:31:00,
2013-01-30 13:36:00,25.0,-0.7,29.71,WNW,292,13.0,17.5,32,-99.99,,---,-99.99,0.00,VWS V14.01,2013-01-30 19:36:00,
2013-01-30 13:42:00,25.0,-1.4,29.71,NNW,338,16.8,17.7,31,-99.99,,---,-99.99,0.00,VWS V14.01,2013-01-30 19:42:00,
2013-01-30 13:47:00,25.0,-0.7,29.71,NNW,338,19.2,19.2,32,-99.99,,---,-99.99,0.00,VWS V14.01,2013-01-30 19:47:00,
2013-01-30 13:52:00,25.2,-0.5,29.74,NNE,22,16.6,16.6,32,-99.99,,---,-99.99,0.00,VWS V14.01,2013-01-30 19:52:00,
2013-01-30 13:58:00,25.0,-0.7,29.74,NNW,338,16.3,19.7,32,-99.99,,---,-99.99,0.00,VWS V14.01,2013-01-30 19:58:00,
2013-01-30 14:04:00,24.8,-0.9,29.74,NNE,22,12.8,16.3,32,-99.99,,---,-99.99,0.00,VWS V14.01,2013-01-30 20:04:00,
2013-01-30 14:09:00,24.8,-0.9,29.74,NW,315,15.4,15.4,32,-99.99,,---,-99.99,0.00,VWS V14.01,2013-01-30 20:09:00,
2013-01-30 14:15:00,25.2,-0.5,29.74,NNE,22,12.3,16.6,32,-99.99,,---,-99.99,0.00,VWS V14.01,2013-01-30 20:15:00,
2013-01-30 14:21:00,24.8,-0.9,29.74,NNW,338,17.2,17.2,32,-99.99,,---,-99.99,0.00,VWS V14.01,2013-01-30 20:21:00,
2013-01-30 14:26:00,24.4,-0.5,29.74,NW,315,14.8,19.5,33,-99.99,,---,-99.99,0.00,VWS V14.01,2013-01-30 20:26:00,
2013-01-30 14:31:00,24.4,-0.5,29.74,WNW,292,15.2,15.2,33,-99.99,,---,-99.99,0.00,VWS V14.01,2013-01-30 20:31:00,
2013-01-30 14:37:00,24.8,-0.2,29.74,NNW,338,12.3,12.3,33,-99.99,,---,-99.99,0.00,VWS V14.01,2013-01-30 20:37:00,
2013-01-30 14:43:00,24.8,-0.9,29.74,NNW,338,22.2,22.2,32,-99.99,,---,-99.99,0.00,VWS V14.01,2013-01-30 20:43:00,
2013-01-30 14:48:00,25.0,-0.7,29.74,NNW,338,15.9,15.9,32,-99.99,,---,-99.99,0.00,VWS V14.01,2013-01-30 20:48:00,
2013-01-30 14:54:00,25.2,-1.2,29.74,NNW,338,10.5,17.0,31,-99.99,,---,-99.99,0.00,VWS V14.01,2013-01-30 20:54:00,
2013-01-30 14:59:00,25.2,-1.2,29.74,NNE,22,17.2,17.2,31,-99.99,,---,-99.99,0.00,VWS V14.01,2013-01-30 20:59:00,
2013-01-30 15:04:00,25.2,-0.5,29.74,NNW,338,12.5,12.5,32,-99.99,,---,-99.99,0.00,VWS V14.01,2013-01-30 21:04:00,
2013-01-30 15:09:00,24.8,-0.2,29.74,NNW,338,16.1,17.2,33,-99.99,,---,-99.99,0.00,VWS V14.01,2013-01-30 21:09:00,
2013-01-30 15:15:00,24.6,-0.4,29.74,WNW,292,17.9,17.9,33,-99.99,,---,-99.99,0.00,VWS V14.01,2013-01-30 21:15:00,
2013-01-30 15:20:00,24.6,-0.4,29.74,NNW,338,17.9,19.2,33,-99.99,,---,-99.99,0.00,VWS V14.01,2013-01-30 21:20:00,
2013-01-30 15:26:00,24.8,-0.9,29.74,NNW,338,9.8,9.8,32,-99.99,,---,-99.99,0.00,VWS V14.01,2013-01-30 21:26:00,
2013-01-30 15:31:00,24.6,-1.0,29.74,WNW,292,16.6,16.6,32,-99.99,,---,-99.99,0.00,VWS V14.01,2013-01-30 21:31:00,
2013-01-30 15:38:00,24.4,-1.2,29.74,NNW,338,15.2,15.2,32,-99.99,,---,-99.99,0.00,VWS V14.01,2013-01-30 21:38:00,
2013-01-30 15:44:00,24.4,0.1,29.74,NW,315,10.1,10.3,34,-99.99,,---,-99.99,0.00,VWS V14.01,2013-01-30 21:44:00,
2013-01-30 15:50:00,24.4,0.1,29.74,NW,315,10.7,11.0,34,-99.99,,---,-99.99,0.00,VWS V14.01,2013-01-30 21:50:00,
2013-01-30 15:55:00,24.4,0.1,29.74,NNW,338,10.5,10.5,34,-99.99,,---,-99.99,0.00,VWS V14.01,2013-01-30 21:55:00,
2013-01-30 16:01:00,24.4,-1.2,29.74,NNW,338,12.8,12.8,32,-99.99,,---,-99.99,0.00,VWS V14.01,2013-01-30 22:01:00,
2013-01-30 16:07:00,24.3,-1.3,29.74,NNW,338,15.4,15.4,32,-99.99,,---,-99.99,0.00,VWS V14.01,2013-01-30 22:07:00,
2013-01-30 16:13:00,24.3,-0.7,29.74,NNW,338,13.0,13.0,33,-99.99,,---,-99.99,0.00,VWS V14.01,2013-01-30 22:13:00,
2013-01-30 16:18:00,24.1,-0.9,29.74,North,0,9.2,9.2,33,-99.99,,---,-99.99,0.00,VWS V14.01,2013-01-30 22:18:00,
2013-01-30 16:24:00,24.1,-0.9,29.76,NNW,338,10.7,13.0,33,-99.99,,---,-99.99,0.00,VWS V14.01,2013-01-30 22:24:00,
2013-01-30 16:30:00,24.1,-0.9,29.76,NW,315,13.0,13.0,33,-99.99,,---,-99.99,0.00,VWS V14.01,2013-01-30 22:30:00,
2013-01-30 16:35:00,23.9,-1.0,29.76,WNW,292,10.3,10.3,33,-99.99,,---,-99.99,0.00,VWS V14.01,2013-01-30 22:35:00,
2013-01-30 16:40:00,23.7,-1.2,29.76,WNW,292,7.8,10.5,33,-99.99,,---,-99.99,0.00,VWS V14.01,2013-01-30 22:40:00,
2013-01-30 16:46:00,23.5,-2.0,29.76,NNW,338,14.8,14.8,32,-99.99,,---,-99.99,0.00,VWS V14.01,2013-01-30 22:46:00,
2013-01-30 16:51:00,23.5,-4.0,29.76,NW,315,10.7,10.7,29,-99.99,,---,-99.99,0.00,VWS V14.01,2013-01-30 22:51:00,
2013-01-30 16:56:00,23.7,-3.9,29.76,NW,315,14.5,14.5,29,-99.99,,---,-99.99,0.00,VWS V14.01,2013-01-30 22:56:00,
2013-01-30 17:02:00,23.7,-3.9,29.76,WNW,292,12.8,12.8,29,-99.99,,---,-99.99,0.00,VWS V14.01,2013-01-30 23:02:00,
2013-01-30 17:09:00,23.7,-1.8,29.76,WNW,292,13.0,13.0,32,-99.99,,---,-99.99,0.00,VWS V14.01,2013-01-30 23:09:00,
2013-01-30 17:14:00,23.5,-0.1,29.76,WNW,292,15.2,15.4,35,-99.99,,---,-99.99,0.00,VWS V14.01,2013-01-30 23:14:00,
2013-01-30 17:19:00,23.5,-0.1,29.76,WNW,292,14.3,14.3,35,-99.99,,---,-99.99,0.00,VWS V14.01,2013-01-30 23:19:00,
2013-01-30 17:24:00,23.5,-0.7,29.76,NNW,338,6.5,13.0,34,-99.99,,---,-99.99,0.00,VWS V14.01,2013-01-30 23:24:00,
2013-01-30 17:30:00,23.4,-1.5,29.76,NNW,338,12.8,12.8,33,-99.99,,---,-99.99,0.00,VWS V14.01,2013-01-30 23:30:00,
2013-01-30 17:36:00,23.5,-1.3,29.79,NW,315,8.1,11.0,33,-99.99,,---,-99.99,0.00,VWS V14.01,2013-01-30 23:36:00,
2013-01-30 17:42:00,23.4,-1.5,29.79,WNW,292,12.1,15.4,33,-99.99,,---,-99.99,0.00,VWS V14.01,2013-01-30 23:42:00,
2013-01-30 17:47:00,23.5,-2.0,29.79,NNW,338,8.7,8.7,32,-99.99,,---,-99.99,0.00,VWS V14.01,2013-01-30 23:47:00,
2013-01-30 17:52:00,23.5,-4.0,29.79,NNW,338,12.1,12.1,29,-99.99,,---,-99.99,0.00,VWS V14.01,2013-01-30 23:52:00,
2013-01-30 17:57:00,23.5,-2.0,29.79,WNW,292,10.7,13.0,32,-99.99,,---,-99.99,0.00,VWS V14.01,2013-01-30 23:57:00,
2013-01-30 18:02:00,23.5,-1.3,29.79,WNW,292,12.1,12.1,33,-99.99,,---,-99.99,0.00,VWS V14.01,2013-01-31 00:02:00,
2013-01-30 18:09:00,23.4,-0.9,29.79,WNW,292,14.5,14.5,34,-99.99,,---,-99.99,0.00,VWS V14.01,2013-01-31 00:09:00,
2013-01-30 18:14:00,23.4,-0.9,29.79,WNW,292,13.9,13.9,34,-99.99,,---,-99.99,0.00,VWS V14.01,2013-01-31 00:14:00,
2013-01-30 18:19:00,23.4,-0.9,29.79,NW,315,9.8,9.8,34,-99.99,,---,-99.99,0.00,VWS V14.01,2013-01-31 00:19:00,
2013-01-30 18:25:00,23.4,-0.9,29.79,WNW,292,7.6,9.8,34,-99.99,,---,-99.99,0.00,VWS V14.01,2013-01-31 00:25:00,